sat.trackr.live / text

‹ back to catalog

STARLINK-34388

NORAD 64294 · 2025-123D

PAYLOAD ACTIVE UNKNOWN

§ Identity

Operator
Country
US
Launch date
2025-06-08
Launch site
AFWTR
Launch vehicle
Mass (kg)
RCS (m²)

Purposes: comms

External: N2YO · Heavens-Above · Gunter

§ Orbital elements

Epoch: 2026-05-24T23:40:11.021952Z

Period
96.11 min
Inclination
70.0023°
Eccentricity
0.0003004
Mean motion
14.98336307 rev/d
Perigee alt
569.9 km
Apogee alt
574.1 km
Semi-major
6,950.2 km
B*
3.1235e-4
RAAN
2.2198°
Arg perigee
263.4068°
Mean anomaly
96.6749°
Rev number
5,426

§ Raw data

STARLINK-343881 64294U 25123D   26144.98623868  .00003636  00000+0  31235-3 0  99992 64294  70.0023   2.2198 0003004 263.4068  96.6749 14.98336307 54269

JSON: /api/v1/satellites/64294 · /tle

For live sub-satellite position, see the globe view (requires WebGL).

§ Visibility from observer

Set your observer location to see the next 7 days of passes ≥ 10°. The values pass through the URL so the page stays shareable.

No JS? Fill the form by hand. The geolocation button needs JavaScript.